Location: Unspecified
(48.5670°N, 0.0000°E)
Time: 00:39:35
(UTC+00:00)

Courier 1B Rocket - All Passes

Search period start: 23 July 2019 00:00
Search period end: 02 August 2019 00:00
Orbit: 920 x 1202 km, 28.2° (Epoch: 21 July)

Date Brightness Start Highest point End Pass type
(mag) Time Alt. Az. Time Alt. Az. Time Alt. Az.
23 Jul - 17:54:55 10° SSW 17:56:58 12° S 17:59:03 10° SSE daylight
24 Jul - 16:54:28 10° SSW 16:56:22 11° S 16:58:18 10° SSE daylight
25 Jul - 15:54:36 10° S 15:55:48 11° S 15:57:01 10° SSE daylight
25 Jul - 17:47:26 10° SSW 17:47:47 10° S 17:48:08 10° S daylight
26 Jul - 16:45:50 10° SSW 16:47:13 11° S 16:48:36 10° S daylight
27 Jul - 15:45:12 10° SSW 15:46:39 11° S 15:48:06 10° SSE daylight
28 Jul - 14:45:13 10° S 14:46:05 10° S 14:46:57 10° SSE daylight
29 Jul - 15:36:39 10° SSW 15:37:30 10° S 15:38:20 10° S daylight
30 Jul - 14:35:37 10° SSW 14:36:56 11° S 14:38:16 10° SSE daylight
31 Jul - 13:35:13 10° S 13:36:23 10° S 13:37:33 10° SSE daylight
01 Aug - 14:26:55 10° SSW 14:27:47 10° S 14:28:39 10° S daylight
